| time (UTC) | temp F | wind direction | speed MPH | gust MPH | rain 1hr in | rain 24hr in | rain mn in | humidity % | barometer mb |
| 20260831190732 | 74 | 171 | 1.0 | 1.0 | 0.00 | 0.00 | 0.00 | 55 | 1011.6 |
| 20260831185228 | 73 | 237 | 0.0 | 0.0 | 0.00 | 0.00 | 0.00 | 55 | 1011.8 |
| 20260831183723 | 71 | 271 | 1.0 | 2.0 | 0.00 | 0.00 | 0.00 | 59 | 1011.8 |
| 20260831182218 | 71 | 206 | 1.0 | 1.0 | 0.00 | 0.00 | 0.00 | 61 | 1012.0 |
| 20260831180714 | 70 | 261 | 1.0 | 2.0 | 0.00 | 0.00 | 0.00 | 62 | 1012.0 |
| 20260831175211 | 69 | 109 | 3.0 | 5.0 | 0.00 | 0.00 | 0.00 | 64 | 1012.2 |
| 20260831173710 | 68 | 96 | 0.0 | 0.0 | 0.00 | 0.00 | 0.00 | 64 | 1012.3 |
| 20260831172207 | 68 | 123 | 0.0 | 0.0 | 0.00 | 0.00 | 0.00 | 65 | 1012.4 |
| 20260831170708 | 67 | 101 | 0.0 | 0.0 | 0.00 | 0.00 | 0.00 | 69 | 1012.4 |
| 20260831165202 | 66 | 53 | 2.0 | 2.0 | 0.00 | 0.00 | 0.00 | 70 | 1012.6 |
| 20260831163700 | 65 | 81 | 0.0 | 0.0 | 0.00 | 0.00 | 0.00 | 72 | 1012.8 |
| 20260831162159 | 66 | 103 | 0.0 | 0.0 | 0.00 | 0.00 | 0.00 | 71 | 1013.0 |
| 20260831160656 | 65 | 87 | 0.0 | 0.0 | 0.00 | 0.00 | 0.00 | 73 | 1012.9 |
| 20260831155152 | 63 | 63 | 0.0 | 0.0 | 0.00 | 0.00 | 0.00 | 78 | 1013.1 |
| 20260831153648 | 61 | 126 | 0.0 | 1.0 | 0.00 | 0.00 | 0.00 | 83 | 1013.0 |
| 20260831152148 | 59 | 338 | 1.0 | 1.0 | 0.00 | 0.00 | 0.00 | 86 | 1013.0 |
| 20260831150643 | 57 | 269 | 0.0 | 0.0 | 0.00 | 0.00 | 0.00 | 91 | 1013.0 |
| 20260831145140 | 56 | 47 | 0.0 | 0.0 | 0.00 | 0.00 | 0.00 | 92 | 1012.9 |
| 20260831143636 | 53 | 48 | 0.0 | 0.0 | 0.00 | 0.00 | 0.00 | 96 | 1013.1 |
| 20260831142135 | 51 | 47 | 0.0 | 0.0 | 0.00 | 0.00 | 0.00 | 97 | 1013.0 |
| 20260831140634 | 51 | 48 | 0.0 | 0.0 | 0.00 | 0.00 | 0.00 | 97 | 1013.1 |
| 20260831135129 | 51 | 47 | 0.0 | 0.0 | 0.00 | 0.00 | 0.00 | 97 | 1013.1 |
| 20260831133624 | 51 | 48 | 0.0 | 0.0 | 0.00 | 0.00 | 0.00 | 96 | 1013.1 |
| 20260831132120 | 51 | 62 | 0.0 | 0.0 | 0.00 | 0.00 | 0.00 | 96 | 1013.2 |
| 20260831130619 | 51 | 74 | 0.0 | 0.0 | 0.00 | 0.00 | 0.00 | 95 | 1013.3 |
| 20260831125114 | 52 | 50 | 0.0 | 0.0 | 0.00 | 0.00 | 0.00 | 96 | 1013.3 |
| 20260831123611 | 52 | 49 | 0.0 | 0.0 | 0.00 | 0.00 | 0.00 | 95 | 1013.4 |
| 20260831122107 | 51 | 49 | 0.0 | 0.0 | 0.00 | 0.00 | 0.00 | 95 | 1013.3 |
| 20260831120602 | 52 | 49 | 0.0 | 1.0 | 0.00 | 0.00 | 0.00 | 94 | 1013.4 |
| 20260831115100 | 52 | 54 | 0.0 | 0.0 | 0.00 | 0.00 | 0.00 | 94 | 1013.4 |
| 20260831113559 | 52 | 52 | 0.0 | 0.0 | 0.00 | 0.00 | 0.00 | 93 | 1013.6 |
| 20260831112056 | 53 | 286 | 0.0 | 1.0 | 0.00 | 0.00 | 0.00 | 93 | 1013.8 |
| 20260831110554 | 53 | 47 | 0.0 | 0.0 | 0.00 | 0.00 | 0.00 | 92 | 1013.7 |
| 20260831105049 | 53 | 65 | 0.0 | 0.0 | 0.00 | 0.00 | 0.00 | 91 | 1013.8 |
| 20260831103548 | 55 | 315 | 0.0 | 1.0 | 0.00 | 0.00 | 0.00 | 92 | 1013.7 |
| 20260831102045 | 53 | 49 | 0.0 | 0.0 | 0.00 | 0.00 | 0.00 | 92 | 1013.9 |
| 20260831100543 | 53 | 51 | 0.0 | 0.0 | 0.00 | 0.00 | 0.00 | 92 | 1014.0 |
| 20260831095038 | 53 | 51 | 0.0 | 0.0 | 0.00 | 0.00 | 0.00 | 90 | 1014.2 |
| 20260831093536 | 54 | 51 | 0.0 | 0.0 | 0.00 | 0.00 | 0.00 | 89 | 1014.3 |
| 20260831092036 | 54 | 51 | 0.0 | 0.0 | 0.00 | 0.00 | 0.00 | 88 | 1014.4 |
| 20260831090532 | 55 | 51 | 0.0 | 0.0 | 0.00 | 0.00 | 0.00 | 89 | 1014.5 |
| 20260831085030 | 55 | 52 | 0.0 | 0.0 | 0.00 | 0.00 | 0.00 | 87 | 1014.8 |
| 20260831083529 | 56 | 52 | 0.0 | 0.0 | 0.00 | 0.00 | 0.00 | 85 | 1014.9 |
| 20260831082024 | 56 | 52 | 0.0 | 0.0 | 0.00 | 0.00 | 0.00 | 84 | 1014.8 |
| 20260831080521 | 58 | 54 | 0.0 | 0.0 | 0.00 | 0.00 | 0.00 | 81 | 1014.9 |
| 20260831075020 | 59 | 302 | 1.0 | 2.0 | 0.00 | 0.00 | 0.00 | 81 | 1015.0 |
| 20260831073520 | 60 | 253 | 1.0 | 1.0 | 0.00 | 0.00 | 0.00 | 79 | 1015.2 |
| 20260831072017 | 60 | 83 | 0.0 | 0.0 | 0.00 | 0.00 | 0.00 | 78 | 1015.2 |
| 20260831070515 | 60 | 128 | 0.0 | 0.0 | 0.00 | 0.00 | 0.00 | 78 | 1015.4 |
| 20260831065015 | 60 | 49 | 0.0 | 0.0 | 0.00 | 0.00 | 0.00 | 76 | 1015.4 |
| 20260831063513 | 62 | 234 | 0.0 | 1.0 | 0.00 | 0.00 | 0.00 | 75 | 1015.6 |
| 20260831062013 | 62 | 282 | 0.0 | 0.0 | 0.00 | 0.00 | 0.00 | 73 | 1015.8 |
| 20260831060513 | 62 | 286 | 1.0 | 1.0 | 0.00 | 0.00 | 0.00 | 72 | 1016.0 |
| 20260831055011 | 63 | 291 | 1.0 | 2.0 | 0.00 | 0.00 | 0.00 | 71 | 1016.0 |
| 20260831053508 | 63 | 293 | 1.0 | 1.0 | 0.00 | 0.00 | 0.00 | 70 | 1016.2 |
| 20260831052008 | 64 | 276 | 0.0 | 1.0 | 0.00 | 0.00 | 0.00 | 68 | 1016.2 |
| 20260831050506 | 64 | 264 | 1.0 | 1.0 | 0.00 | 0.00 | 0.00 | 67 | 1016.3 |
| 20260831045005 | 65 | 55 | 0.0 | 0.0 | 0.00 | 0.00 | 0.00 | 65 | 1016.5 |
| 20260831043501 | 65 | 252 | 0.0 | 1.0 | 0.00 | 0.00 | 0.00 | 64 | 1016.5 |
| 20260831041956 | 66 | 63 | 1.0 | 1.0 | 0.00 | 0.00 | 0.00 | 62 | 1016.4 |
| 20260831040452 | 66 | 269 | 1.0 | 1.0 | 0.00 | 0.00 | 0.00 | 61 | 1016.5 |
| 20260831034950 | 67 | 310 | 2.0 | 2.0 | 0.00 | 0.00 | 0.00 | 59 | 1016.3 |
| 20260831033447 | 68 | 55 | 0.0 | 0.0 | 0.00 | 0.00 | 0.00 | 58 | 1016.1 |
| 20260831031944 | 68 | 35 | 0.0 | 0.0 | 0.00 | 0.00 | 0.00 | 58 | 1016.3 |
| 20260831030443 | 69 | 69 | 0.0 | 0.0 | 0.00 | 0.00 | 0.00 | 57 | 1016.2 |
| 20260831024942 | 70 | 45 | 1.0 | 1.0 | 0.00 | 0.00 | 0.00 | 58 | 1016.4 |
| 20260831023440 | 71 | 38 | 0.0 | 1.0 | 0.00 | 0.00 | 0.00 | 55 | 1016.4 |
| 20260831021935 | 71 | 29 | 2.0 | 3.0 | 0.00 | 0.00 | 0.00 | 54 | 1016.3 |
| 20260831020430 | 72 | 37 | 2.0 | 2.0 | 0.00 | 0.00 | 0.00 | 53 | 1016.3 |
| 20260831014928 | 72 | 59 | 1.0 | 1.0 | 0.00 | 0.00 | 0.00 | 52 | 1016.4 |
| 20260831013425 | 73 | 309 | 3.0 | 3.0 | 0.00 | 0.00 | 0.00 | 52 | 1016.4 |
| 20260831011920 | 73 | 343 | 2.0 | 6.0 | 0.00 | 0.00 | 0.00 | 51 | 1016.8 |
| 20260831010417 | 74 | 42 | 5.0 | 7.0 | 0.00 | 0.00 | 0.00 | 50 | 1016.9 |
| 20260831004914 | 75 | 0 | 0.0 | 1.0 | 0.00 | 0.00 | 0.00 | 49 | 1017.0 |
| 20260831003413 | 75 | 2 | 2.0 | 3.0 | 0.00 | 0.00 | 0.00 | 48 | 1017.3 |
| 20260831001914 | 76 | 284 | 1.0 | 2.0 | 0.00 | 0.00 | 0.00 | 47 | 1017.3 |
| 20260831000413 | 75 | 298 | 1.0 | 3.0 | 0.00 | 0.00 | 0.00 | 48 | 1017.4 |
| 20260830234908 | 76 | 14 | 5.0 | 8.0 | 0.00 | 0.00 | 0.00 | 47 | 1017.7 |
| 20260830233405 | 76 | 51 | 2.0 | 3.0 | 0.00 | 0.00 | 0.00 | 45 | 1017.9 |
| 20260830231905 | 76 | 359 | 3.0 | 5.0 | 0.00 | 0.00 | 0.00 | 43 | 1018.1 |
| 20260830230401 | 76 | 103 | 0.0 | 1.0 | 0.00 | 0.00 | 0.00 | 42 | 1018.2 |
| 20260830224902 | 76 | 43 | 1.0 | 1.0 | 0.00 | 0.00 | 0.00 | 42 | 1018.2 |
| 20260830223359 | 74 | 45 | 2.0 | 3.0 | 0.00 | 0.00 | 0.00 | 44 | 1018.5 |
| 20260830221855 | 75 | 24 | 2.0 | 2.0 | 0.00 | 0.00 | 0.00 | 43 | 1019.0 |
| 20260830220352 | 75 | 108 | 3.0 | 3.0 | 0.00 | 0.00 | 0.00 | 44 | 1019.3 |
| 20260830214851 | 75 | 240 | 0.0 | 0.0 | 0.00 | 0.00 | 0.00 | 48 | 1019.4 |
| 20260830213348 | 74 | 44 | 2.0 | 3.0 | 0.00 | 0.00 | 0.00 | 45 | 1019.7 |
| 20260830211844 | 73 | 23 | 3.0 | 5.0 | 0.00 | 0.00 | 0.00 | 49 | 1019.7 |
| 20260830210339 | 74 | 217 | 2.0 | 2.0 | 0.00 | 0.00 | 0.00 | 46 | 1020.0 |
| 20260830204837 | 73 | 297 | 5.0 | 8.0 | 0.00 | 0.00 | 0.00 | 47 | 1019.9 |
| 20260830203334 | 73 | 54 | 2.0 | 3.0 | 0.00 | 0.00 | 0.00 | 50 | 1020.1 |
| 20260830201830 | 71 | 3 | 4.0 | 6.0 | 0.00 | 0.00 | 0.00 | 51 | 1020.4 |
| 20260830200325 | 71 | 30 | 2.0 | 3.0 | 0.00 | 0.00 | 0.00 | 50 | 1020.5 |
| 20260830194824 | 72 | 55 | 2.0 | 3.0 | 0.00 | 0.00 | 0.00 | 51 | 1020.6 |
| 20260830193325 | 71 | 72 | 1.0 | 1.0 | 0.00 | 0.00 | 0.00 | 51 | 1020.8 |
| 20260830191822 | 70 | 104 | 1.0 | 1.0 | 0.00 | 0.00 | 0.00 | 53 | 1021.2 |